Retour au catalogue

STARLINK-33930

ActifCommunicationsVLEO
NORAD 63776·PAYLOAD·🇺🇸 United States

Lancé May 2, 2025 depuis Cape Canaveral Space Force Station

Loading…

Prochains Passages (prochaines 24 heures)

TLE

FraisSource: CelesTrak SupGP

Époque: Sep 15, 2026, 03:31 UTC

1 63776C 25091B   26258.14701389 -.00028129  00000+0 -10187-2 0  2582
2 63776  43.0002  62.8823 0001481 269.2681  91.6954 15.27597806    12

Suivez STARLINK-33930 en temps réel avec AllMySat

Download on the App Store